Location: Hilton Head Island
(32.2163°N, 80.7526°W)
Time: 22:41:53
(UTC-04:00)

Tiros 1 despin weight - Pass Details

Date: 24 February 2026
Orbit: 556 x 593 km, 48.2° (Epoch: 13 March)

Event Time Altitude Azimuth Distance (km) Brightness Sun altitude
Rises 12:04:05 0° 235° (SW) 2,766 ? 47.8°
Reaches altitude 10° 12:06:22 10° 238° (WSW) 1,864 ? 47.9°
Maximum altitude 12:10:37 70° 321° (NW) 603 ? 48.1°
Drops below altitude 10° 12:14:50 10° 46° (NE) 1,849 ? 48.2°
Sets 12:17:05 0° 49° (NE) 2,742 ? 48.3°
